Location: Camp at the Woods
(43.2055°N, 93.0905°W)
Time: 13:10:07
(UTC+00:00)

Cosmos 1140 Rocket - Pass Details

Date: 05 December 2023
Orbit: 743 x 764 km, 74.1° (Epoch: 20 February)

Event Time Altitude Azimuth Distance (km) Brightness Sun altitude
Rises 23:01:26 0° 347° (NNW) 3,217 6.6 -4.7°
Reaches altitude 10° 23:04:01 10° 356° (N) 2,284 5.7 -5.1°
Maximum altitude 23:08:43 34° 62° (ENE) 1,216 4.1 -5.9°
Drops below altitude 10° 23:13:22 10° 127° (SE) 2,259 5.7 -6.7°
Sets 23:15:55 0° 136° (SE) 3,176 6.5 -7.1°
